Regional Weather Roundup
Issued by NWS Goodland, KS

Home | Current Version | Previous Version | Text Only | Print | Product List | Glossary On
Versions: 1 2 3 4 5 6 7 8 9 10 11 12 13 14 15 16 17 18 19 20 21 22 23 24 25 26 27 28 29 30 31 32 33 34 35 36 37 38 39 40 41 42 43 44 45 46 47 48 49 50
925
ASUS43 KGLD 291308
RWRGLD

GOODLAND FORECAST AREA HOURLY WEATHER ROUNDUP
NATIONAL WEATHER SERVICE GOODLAND KS
700 AM MDT SUN MAY 29 2016

...OFFICIAL OBSERVATIONS...

CITY           SKY/WX    TMP DP  RH WIND       PRES   REMARKS
GOODLAND KS    SUNNY     60  50  69 S9        30.13R
HILL CITY KS   CLOUDY    62  55  77 W3        30.12R
IMPERIAL NEB   SUNNY     56  51  84 NW5       30.13R
MCCOOK NEB     SUNNY     58  53  84 NE5       30.11R
AKRON CO       SUNNY     54  47  77 CALM      30.16S
BURLINGTON CO  SUNNY     57  48  72 S13       30.15R
LIMON CO       CLOUDY    50  45  83 CALM      30.20R
$$

...UNOFFICIAL OBSERVATIONS...

CITY           SKY/WX    TMP DP  RH WIND       PRES   REMARKS
GOVE KS          N/A     65  32  29 MISG        N/A
LENORA KS        N/A     64  32  30 MISG        N/A
SHARON SPRINGS   N/A     58  53  83 S8          N/A
KIT CARSON CO    N/A     56  49  78 CALM        N/A
YUMA CO          N/A     54  47  78 W5          N/A
$$




USA.gov is the U.S. government's official web portal to all federal, state and local government web resources and services.